This is the latest recevied weather packets stored in our database for station/object AD0YN. If no packets are shown the sender has not sent any weather packets the latest 10 day(s).
| Time | Temp. | Humidity | Pressure | Rain* | Wind** | Luminosity | Snow |
|---|---|---|---|---|---|---|---|
| 1778088944 | 14.44° C | 32% | 1018 hPa | 0 mm | - | 698 W/m² | - |
| 1778088640 | 14.44° C | 35% | 1018.1 hPa | 0 mm | - | 598 W/m² | - |
| 1778088338 | 14.44° C | 31% | 1018.3 hPa | 0 mm | - | 563 W/m² | - |
| 1778088033 | 15° C | 32% | 1018.3 hPa | 0 mm | - | 578 W/m² | - |
| 1778087731 | 15° C | 35% | 1018.2 hPa | 0 mm | - | 601 W/m² | - |
| 1778087429 | 15° C | 33% | 1018.2 hPa | 0 mm | - | 704 W/m² | - |
| 1778087127 | 14.44° C | 31% | 1018.3 hPa | 0 mm | - | 837 W/m² | - |
| 1778086824 | 13.89° C | 33% | 1018.1 hPa | 0 mm | - | 631 W/m² | - |
| 1778086522 | 15° C | 36% | 1018 hPa | 0 mm | - | 778 W/m² | - |
| 1778086218 | 14.44° C | 32% | 1018.2 hPa | 0 mm | - | 747 W/m² | - |
| 1778085915 | 14.44° C | 34% | 1018 hPa | 0 mm | - | 778 W/m² | - |
| 1778085613 | 14.44° C | 34% | 1018.1 hPa | 0 mm | - | 741 W/m² | - |
| 1778085308 | 14.44° C | 31% | 1018.4 hPa | 0 mm | - | 727 W/m² | - |
| 1778085004 | 14.44° C | 33% | 1018.2 hPa | 0 mm | - | 776 W/m² | - |
| 1778084701 | 14.44° C | 31% | 1018.3 hPa | 0 mm | - | 857 W/m² | - |
| 1778084398 | 13.89° C | 32% | 1018.1 hPa | 0 mm | - | 797 W/m² | - |
| 1778084095 | 14.44° C | 34% | 1018.1 hPa | 0 mm | - | 775 W/m² | - |
| 1778083792 | 14.44° C | 34% | 1018.1 hPa | 0 mm | - | 767 W/m² | - |
| 1778083490 | 13.89° C | 33% | 1018.3 hPa | 0 mm | - | 751 W/m² | - |
| 1778083187 | 13.89° C | 32% | 1018 hPa | 0 mm | - | 739 W/m² | - |
| 1778082884 | 13.89° C | 37% | 1018.1 hPa | 0 mm | - | 723 W/m² | - |
| 1778081771 | 13.33° C | 33% | 1017.9 hPa | 0 mm | - | 672 W/m² | - |
| 1778081468 | 13.33° C | 33% | 1017.9 hPa | 0 mm | - | 641 W/m² | - |
| 1778081165 | 13.33° C | 34% | 1017.9 hPa | 0 mm | - | 641 W/m² | - |
| 1778080863 | 13.33° C | 40% | 1017.9 hPa | 0 mm | - | 639 W/m² | - |
* Rain latest hour (hover to see other rain measurements)
** Current wind speed in m/s (hover to see current wind gust speed)